Regional Weather Roundup
Issued by NWS

Home | Current Version | Previous Version | Text Only | Print | Product List | Glossary On
Versions: 1 2 3 4 5 6 7 8 9 10 11 12 13 14 15 16 17 18 19 20 21 22 23 24 25 26 27 28 29 30 31 32 33 34 35 36 37 38 39 40 41 42 43 44 45 46 47 48 49 50
000
ASUS42 KTBW 020410
RWRFL
FLORIDA REGIONAL WEATHER ROUNDUP
NATIONAL WEATHER SERVICE TAMPA BAY RUSKIN FL
1200 AM EDT THU OCT 02 2014

NOTE: "FAIR" INDICATES FEW OR NO CLOUDS BELOW 12,000 FEET WITH NO
SIGNIFICANT WEATHER AND/OR OBSTRUCTIONS TO VISIBILITY.


FLZ001>010-012>015-112-114-115-020500-
PANHANDLE FLORIDA

CITY           SKY/WX    TMP DP  RH WIND       PRES   REMARKS
PENSACOLA      PTCLDY    74  71  91 E3        29.99S
PENSACOLA NAS  MOCLDY    73  72  96 CALM      29.98S
MILTON NAS     CLEAR     69  66  90 CALM      30.00S
CRESTVIEW      CLEAR     69  67  93 CALM      30.02R
DUKE FIELD     PTCLDY    69  69 100 CALM      30.00R
VALPARAISO     PTCLDY    73  69  90 NE3       30.00R
MARY ESTHER    PTCLDY    71  67  85 N3        29.98S
TRI COUNTY     FAIR      69  68  96 CALM      30.02R
PANAMA CITY    FAIR      71  68  90 CALM      30.00R
TYNDALL AFB    MOCLDY    73  73 100 CALM      30.00F
APALACHICOLA   PTCLDY    74  69  85 NE3       30.00R

STATION/POSITION SKY/WX   TEMP    WIND        PRES    WAVE   SWELL
                          AIR SEA DIR/SP/G            HT/PER HT/PER
                          (F)     (DEG/KT/KT) (MB)    (FT/S) (FT/S)
30.1N   87.6W              80 82  150/ 12/ 14 1015.1F   1/ 3
29.2N   88.2W              81 82  120/ 12/ 14 1015.2S   1/ 3
28.8N   86.0W              81 83  110/ 12/ 14 1015.2    2/ 5
PANAMA CITY BEAC           79 82  150/  7/  8 1015.7F
CAPE SAN BLAS    NOT AVBL
TOWER C                    80     110/  7/  8 1015.8R
28.5N   84.5W              81 83   70/  4/  4 1015.5F   1/ 3

$$
FLZ011-016>038-118-127-128-134-139-239-020500-
NORTH FLORIDA

CITY           SKY/WX    TMP DP  RH WIND       PRES   REMARKS
MARIANNA       PTCLDY    70  70 100 CALM      30.01R
TALLAHASSEE    PTCLDY    72  70  93 CALM      30.01S
PERRY          CLEAR     68  68 100 CALM      30.02S
CROSS CITY       N/A     75  72  90 CALM      30.00S
LAKE CITY      CLOUDY    72  72 100 CALM      30.02S
GAINESVILLE    CLEAR     72  71  97 CALM      30.01R
MAYPORT NAS    PTCLDY    77  71  82 NE7       30.00F
JACKSONVILLE   PTCLDY    70  70 100 CALM      30.01S
JAX NAS        MOCLDY    79  70  74 NE5       30.01S
JAX CRAIG      MOCLDY    74  70  87 CALM      30.01S
JAX CECIL      PTCLDY    70  70 100 CALM      30.01S
FERNANDINA BEA CLOUDY    81  72  74 E3        30.00S
ST AUGUSTINE   CLEAR     78  73  84 NE7       30.01R

STATION/POSITION SKY/WX   TEMP    WIND        PRES    WAVE   SWELL
                          AIR SEA DIR/SP/G            HT/PER HT/PER
                          (F)     (DEG/KT/KT) (MB)    (FT/S) (FT/S)
SHELL POINT                77      70/  1/  2   N/A
KEATON BEACH               73      60/  4/  5 1016.3R
CEDAR KEY                  78      80/ 11/ 12 1016.1S
FERNANDINA                 77 79   80/  3/  4 1015.6F
30.7N   81.3W                 79                N/A     3/ 7
MAYPORT                    79 79   70/  6/  7   N/A
31.4N   80.9W              78 79   90/ 10/ 12 1016.3F   2/ 4   2/ 8
ST AUGUSTINE               79      80/  8/  8 1016.5R

$$
FLZ040-043>046-052-053-057-058-063-144-020500-
INTERIOR CENTRAL FLORIDA

CITY           SKY/WX    TMP DP  RH WIND       PRES   REMARKS
OCALA          CLEAR     75  72  88 NE3       30.00S
THE VILLAGES     N/A     77  75  94 CALM      29.91S
LEESBURG       PTCLDY    76  73  91 CALM      30.01R
SANFORD        CLEAR     75  73  93 CALM      29.99S
ORLANDO EXEC   CLEAR     78  74  87 N3        29.99S
ORLANDO INTL   PTCLDY    76  75  97 N5        29.99S
WINTER HAVEN   PTCLDY    76  73  91 CALM      30.01S
LAKELAND       PTCLDY    75  72  88 CALM      30.00S
BARTOW         MOCLDY    75  75 100 CALM      30.00S
OKEECHOBEE       N/A     73  73 100 MISG        N/A

$$
FLZ041-047-054-059-064-141-147-020500-
EAST CENTRAL FLORIDA

CITY           SKY/WX    TMP DP  RH WIND       PRES   REMARKS
DAYTONA BEACH  MOCLDY    78  74  87 SE5       30.00R
DELAND         CLEAR     73  73 100 NW3       30.01S
JFK SPACE CTR  MOCLDY    77  75  94 CALM      29.98S
CAPE CANAVERAL PTCLDY    79  75  87 E3        29.97F
PATRICK AFB    PTCLDY    81  77  89 NE3       29.97F
MELBOURNE      CLOUDY    80  76  87 W3        29.97F
VERO BEACH     PTCLDY    74  69  85 W5        29.97F
FT PIERCE      PTCLDY    76  74  93 CALM      29.97F
STUART         PTCLDY    77  75  94 SW3       29.99S

STATION/POSITION SKY/WX   TEMP    WIND        PRES    WAVE   SWELL
                          AIR SEA DIR/SP/G            HT/PER HT/PER
                          (F)     (DEG/KT/KT) (MB)    (FT/S) (FT/S)
28.5N   80.2W              82 83   80/ 10/ 10 1015.2R
28.9N   78.5W              80 85   50/ 16/ 17 1014.9F   3/ 7   2/ 7
TRIDENT PIER               78 84   40/  5/  6 1014.6F
28.4N   80.5W                 83                N/A     2/13
27.6N   80.2W                 83                N/A     2/ 7

$$
FLZ050-056-061-142-242-148-248-149-249-151-251-155-255-
160-260-020500-
WEST CENTRAL FLORIDA

CITY           SKY/WX    TMP DP  RH WIND       PRES   REMARKS
CRYSTAL RIVER  FAIR      73  72  94 CALM      30.00R
INVERNESS      FAIR      73  68  83 CALM      30.01R
BROOKSVILLE    MOCLDY    75  73  93 E3        30.00S
ZEPHYRHILLS      N/A     70  70 100 CALM      30.00S
CLEARWATER     PTCLDY    79  75  87 NE5       29.98S
TAMPA INTL     MOCLDY    79  74  84 CALM      29.99S
TAMPA EXEC     PTCLDY    79  73  83 CALM      29.99S
PLANT CITY     CLOUDY    77 N/A N/A CALM      30.01S
MACDILL AFB    CLEAR     76  74  94 E2        29.99R
ST PETERSBURG  PTCLDY    79  75  87 N5        29.97R
SARASOTA       PTCLDY    77  75  93 CALM      29.97S
VENICE           N/A     81  75  83 MISG      29.99F

STATION/POSITION SKY/WX   TEMP    WIND        PRES    WAVE   SWELL
                          AIR SEA DIR/SP/G            HT/PER HT/PER
                          (F)     (DEG/KT/KT) (MB)    (FT/S) (FT/S)
CEDAR KEY                  78      80/ 11/ 12 1016.1S
28.5N   84.5W              81 83   70/  4/  4 1015.5F   1/ 3
27.3N   84.3W                 84                N/A     1/ 4
CLEARWATER BEACH           80 84   50/  5/  8 1015.1R
MIDDLE TAMPA BAY           81      40/  6/  8 1015.6F
VENICE                     82 85  360/  4/  5 1014.8F

$$
FLZ066-069-070-075>078-162-262-165-265-020500-
SOUTHWEST FLORIDA AND KEYS

CITY           SKY/WX    TMP DP  RH WIND       PRES   REMARKS
PUNTA GORDA    CLEAR     78  76  93 CALM      30.00S
FT MYERS       CLEAR     78  76  93 CALM      29.98S
SOUTHWEST INTL CLEAR     79  76  90 CALM      29.99S
NAPLES         CLEAR     81  76  84 CALM      29.99R
MARCO ISLAND   CLEAR     79  75  89 E3        29.99S
MARATHON       PTCLDY    82  76  81 CALM      29.99F
KEY WEST NAS   CLEAR     82  75  79 E3        29.99F
KEY WEST INTL  CLEAR     84  75  74 E5        30.00S

STATION/POSITION SKY/WX   TEMP    WIND        PRES    WAVE   SWELL
                          AIR SEA DIR/SP/G            HT/PER HT/PER
                          (F)     (DEG/KT/KT) (MB)    (FT/S) (FT/S)
VENICE                     82 85  360/  4/  5 1014.8F
NAPLES                     83 88  330/  4/  6 1016.0S
DRY TORTUGAS               84      90/  1/  2 1015.6R
NW FL BAY                  85     320/  3/  4 1016.0R
SAND KEY                   84     100/  4/  5 1015.7F
SOMBRERO KEY               83     230/  1/  2 1016.3F
LONG KEY                   84 88  300/  2/  3 1016.2F
MOLASSES REEF              85 86  300/  5/  5 1015.4F

$$
FLZ067-068-071>074-168-172>174-020500-
SOUTHEAST FLORIDA

CITY           SKY/WX    TMP DP  RH WIND       PRES   REMARKS
W PALM BEACH   CLOUDY    77  75  93 S7        29.98S
FT LAUDER-EXEC MOCLDY    82  73  74 CALM      29.98S
FT LAUDERDALE  MOCLDY    82  74  76 W5        29.98S
POMPANO BEACH  CLOUDY    82  77  84 N5        29.99R
PEMBROKE PINES MOCLDY    81  76  84 SW5       30.00S
OPA LOCKA      PTCLDY    81  76  84 W3        29.99S
MIAMI          PTCLDY    83  76  79 W6        29.99S
WEST KENDALL   CLEAR     81  76  84 CALM      29.99S
HOMESTEAD      CLEAR     78  76  91 SW2       29.99F

STATION/POSITION SKY/WX   TEMP    WIND        PRES    WAVE   SWELL
                          AIR SEA DIR/SP/G            HT/PER HT/PER
                          (F)     (DEG/KT/KT) (MB)    (FT/S) (FT/S)
PORT EVERGLADES            81     210/  2/  3 1015.4
VIRGINIA KEY               84 86  260/  6/  7 1015.9F
LAKE WORTH                 79 85  100/  8/  9 1015.4F
FOWEY ROCKS                83 85  270/ 10/ 11 1015.8F
SETTLEMENT POINT           80     210/ 11/ 13 1016.3R

$$



USA.gov is the U.S. government's official web portal to all federal, state and local government web resources and services.